Regional Weather Roundup
Issued by NWS Midland/Odessa, TX

Skip options and go directly to product.
Home | Oldest Version | Next Version | Current Version | All | Text Only | Save Text | Print | Product List | Glossary On

Skip product version selection by date and time.   
134
ASUS44 KMAF 172110
RWRMAF
MIDLAND AREA WEATHER ROUNDUP
NATIONAL WEATHER SERVICE MIDLAND TX
400 PM CDT WED SEP 17 2014

...IN SOUTHWEST TEXAS AND SOUTHEAST NEW MEXICO...

CITY           SKY/WX    TMP DP  RH WIND       PRES   REMARKS
ALPINE         SUNNY     84  59  43 E6        30.09F
ANDREWS        FAIR      85  63  48 S5        29.98F
ARTESIA        NOT AVBL
BIG SPRING     PTSUNNY   87  63  44 NW3       29.96F
CARLSBAD       PTSUNNY   81  66  60 CALM      29.98F
DRYDEN           N/A     92  66  42 E12       29.91F
FORT STOCKTON  SUNNY     87  63  44 S7        29.96F
GUAD PASS      PTSUNNY   79  59  50 VRB5      30.12F
HOBBS          MOSUNNY   82  64  54 S7        30.01F
MARFA          MOSUNNY   81  57  44 SE8       30.09F
MIDLAND AIRPK  NOT AVBL
MIDLAND INTL   PTSUNNY   87  63  44 S6        29.95F
ODESSA         PTSUNNY   87  64  46 SE12      29.96F
PECOS          SUNNY     88  61  39 E5        29.92F
PRESIDIO       FAIR      90  59  34 N5        29.91F
SEMINOLE       PTSUNNY   86  62  44 S8        29.99F
SNYDER         PTSUNNY   83  70  63 W3        29.95F
WINK           MOSUNNY   89  63  41 S8        29.93F
$$
...OTHER STATIONS IN TEXAS...

CITY           SKY/WX    TMP DP  RH WIND       PRES   REMARKS
ABILENE        LGT RAIN  78  72  81 CALM      29.95R
AMARILLO       CLOUDY    78  64  61 SW14G20   30.02F
AUSTIN         PTSUNNY   84  72  67 SE13      29.87F
BROWNSVILLE    MOSUNNY   90  77  65 SE14G20   29.86F HX 103
CORPUS CHRISTI PTSUNNY   91  75  59 S8        29.85F HX 101
DALLAS FTW     PTSUNNY   95  65  37 SE9       29.86F
DEL RIO        MOSUNNY   89  69  51 S3        29.86F
EL PASO        MOSUNNY   83  63  50 NE7       29.99F
HOUSTON INT    CLOUDY    76  74  93 SE10      29.90F
LUBBOCK        PTSUNNY   78  67  68 E7        29.98F THUNDER
SAN ANGELO     MOSUNNY   92  65  40 E12       29.90F
SAN ANTONIO    RAIN      79  75  87 NW9       29.89F
WACO           MOSUNNY   94  69  44 CALM      29.86F
WICHITA FALLS  NOT AVBL
$$
...OTHER LOCATIONS IN NEW MEXICO...

CITY           SKY/WX    TMP DP  RH WIND       PRES   REMARKS
ALAMAGORDO     MOSUNNY   77  61  57 CALM      30.05F
ALBUQUERQUE    LGT RAIN  67  58  72 N7        30.16F
CANNON AFB     CLOUDY    66  64  94 W7        30.08F
CLOVIS           N/A     68  64  88 W9        30.09F
HOLLOMAN AFB   PTSUNNY   76  64  65 N1        30.03F
ROSWELL        CLOUDY    75  64  68 N9        30.02F
RUIDOSO        PTSUNNY   64  59  82 N7        30.22F
SANTA FE       CLOUDY    65  53  65 SW5       30.19F
TRUTH OR CONSE MOSUNNY   74  61  63 SE6       30.07F
TUCUMCARI      CLOUDY    75  59  57 W10       30.04F
$$

USA.gov is the U.S. government's official web portal to all federal, state and local government web resources and services.